Weather History for KSDL - May, 2014

Change the Weather History Date:

Wednesday, May 14, 2014

  Actual Average Record
Temperature  
Mean Temperature 82 °F -  
Max Temperature 90 °F 90 °F 100 °F (2006)
Min Temperature 73 °F 65 °F 53 °F (1998)
Cooling Degree Days 16    
Growing Degree Days 32 (Base 50)    
Moisture  
Dew Point 18 °F    
Average Humidity 9    
Maximum Humidity 13    
Minimum Humidity 7    
Precipitation  
Precipitation 0.00 in - - ()
Sea Level Pressure  
Sea Level Pressure 30.03 in    
Wind  
Wind Speed 10 mph (East)    
Max Wind Speed 17 mph    
Max Gust Speed 26 mph    
Visibility 10 miles    
Events      
Averages and records for this station are not official NWS values.
T = Trace of Precipitation, MM = Missing Value Source: NWS Daily Summary

Daily Weather History Graph

Daily Weather History Graph

Search for Another Location

Airport or City:

Trip Planner

Search our weather history database for the weather conditions in past years. The results will help you decide how hot, cold, wet, or windy it might be!

Date:

Astronomy

May. 14, 2014 Rise Set
Actual Time 5:27 AM MST 7:20 PM MST
Civil Twilight 5:00 AM MST 7:48 PM MST
Nautical Twilight 4:27 AM MST 8:21 PM MST
Astronomical Twilight 3:51 AM MST 8:56 PM MST
Moon 7:31 PM MST (5/14) 5:26 AM MST (5/14)
Length of Visible Light 14h 47m
Length of Day
13h 53m
Full, 100% of the Moon is Illuminated
May 14
Full
May 14
Full
May 21
Last Quarter
May 28
New
Jun 5
First Quarter

Hourly Weather History & Observations

Time (MST) Temp. Dew Point Humidity Pressure Visibility Wind Dir Wind Speed Gust Speed Precip Events Conditions
12:53 AM 73.9 °F 5.0 °F 7% 30.04 in 10.0 mi NNE 17.3 mph 26.5 mph N/A   Clear
2:53 AM 73.9 °F 10.9 °F 9% 30.04 in 10.0 mi NNE 15.0 mph 26.5 mph N/A   Clear
3:53 AM 73.9 °F 12.0 °F 9% 30.04 in 10.0 mi NE 13.8 mph 24.2 mph N/A   Clear
5:53 AM 73.9 °F 12.9 °F 10% 30.08 in 10.0 mi Variable 5.8 mph 23.0 mph N/A   Clear
6:53 AM 73.9 °F 15.1 °F 11% 30.11 in 10.0 mi East 6.9 mph - N/A   Clear
8:53 AM 79.0 °F 19.9 °F 11% 30.13 in 10.0 mi ENE 13.8 mph - N/A   Clear
9:53 AM 79.0 °F 21.9 °F 12% 30.12 in 10.0 mi East 9.2 mph 23.0 mph N/A   Clear
10:53 AM 82.0 °F 21.0 °F 10% 30.10 in 10.0 mi East 9.2 mph - N/A   Clear
11:53 AM 84.0 °F 19.9 °F 9% 30.09 in 10.0 mi South 5.8 mph 17.3 mph N/A   Clear
12:53 PM 86.0 °F 19.0 °F 8% 30.06 in 10.0 mi SSE 8.1 mph - N/A   Clear
1:53 PM 88.0 °F 19.0 °F 8% 30.03 in 10.0 mi Variable 6.9 mph - N/A   Clear
2:53 PM 89.1 °F 18.0 °F 7% 29.99 in 10.0 mi Variable 6.9 mph - N/A   Clear
3:53 PM 89.1 °F 19.0 °F 8% 29.97 in 10.0 mi Calm Calm - N/A   Clear
4:53 PM 90.0 °F 18.0 °F 7% 29.95 in 10.0 mi WSW 8.1 mph - N/A   Clear
5:53 PM 90.0 °F 18.0 °F 7% 29.94 in 10.0 mi WSW 5.8 mph - N/A   Clear
6:53 PM 89.1 °F 17.1 °F 7% 29.95 in 10.0 mi WSW 3.5 mph - N/A   Clear
7:53 PM 86.0 °F 21.0 °F 9% 29.97 in 10.0 mi Calm Calm - N/A   Clear
8:53 PM 82.0 °F 23.0 °F 11% 29.99 in 10.0 mi Calm Calm - N/A   Clear
9:53 PM 79.0 °F 24.1 °F 13% 30.01 in 10.0 mi North 5.8 mph - N/A   Clear
10:53 PM 77.0 °F 23.0 °F 13% 30.02 in 10.0 mi Calm Calm - N/A   Clear
11:53 PM 78.1 °F 19.0 °F 11% 30.02 in 10.0 mi Calm Calm - N/A   Clear